Location: Huesca
(42.1318°N, 0.4078°W)
Time: 23:53:26
(UTC+02:00)

CUTE 1.7 + AOD 2 - Pass Details

Date: 27 April 2024
Orbit: 569 x 586 km, 97.8° (Epoch: 26 May)

Event Time Altitude Azimuth Distance (km) Brightness Sun altitude
Rises 05:40:57 0° 11° (N) 2,784 ? -14.3°
Reaches altitude 10° 05:43:06 10° 10° (N) 1,881 ? -13.9°
Maximum altitude 05:47:10 81° 285° (WNW) 582 ? -13.3°
Enters shadow 05:50:51 12° 197° (SSW) 1,718 ? -12.7°
